{"data":{"norad_id":64924,"epoch":"2026-05-24T23:53:24.078048Z","epoch_age_seconds":86119,"freshness":"FRESH","line1":"1 64924U 25157W   26144.99541757  .00009126  00000+0  30538-3 0  9998","line2":"2 64924  53.1573 350.7272 0000742  68.3008 291.8073 15.31710424 47767","mean_motion":15.31710424,"eccentricity":7.42e-5,"inclination_deg":53.1573,"raan_deg":350.7272,"arg_perigee_deg":68.3008,"mean_anomaly_deg":291.8073,"bstar":0.00030538,"rev_number":4776,"period_min":94.012548157732,"perigee_km":470.20073763288,"apogee_km":471.2171063677,"semimajor_km":6848.8459220003,"source":"CELESTRAK","updated_at":"2026-05-25T13:38:20.625176Z"}}